Weather History for Madera, CA

Change the Weather History Date:

Friday, March 15, 2013

  Actual Average Record
Temperature  
Mean Temperature 61 °F 54 °F  
Max Temperature 75 °F 66 °F 80 °F (2007)
Min Temperature 46 °F 42 °F 33 °F (2002)
Degree Days  
Heating Degree Days 4    
Month to date heating degree days 115  
Since 1 July heating degree days 2118  
Cooling Degree Days 0    
Month to date cooling degree days 0  
Year to date cooling degree days 0  
Growing Degree Days 10 (Base 50)    
Moisture  
Dew Point 50 °F    
Average Humidity 69    
Maximum Humidity 96    
Minimum Humidity 41    
Precipitation  
Precipitation 0.00 in 0.05 in 0.22 in (2003)
Month to date precipitation 0.10 1.13  
Year to date precipitation 2.24 5.71  
Since 1 July precipitation 6.94 9.73  
Snow  
Snow 0.00 in - - ()
Month to date snowfall 0.0  
Since 1 July snowfall 0.0  
Snow Depth 0.00 in    
Sea Level Pressure  
Sea Level Pressure 30.04 in    
Wind  
Wind Speed 6 mph (NW)    
Max Wind Speed 15 mph    
Max Gust Speed 18 mph    
Visibility 10 miles    
Events      
T = Trace of Precipitation, MM = Missing Value Source: NWS Daily Summary

Daily Weather History Graph

Daily Weather History Graph

Search for Another Location

Airport:

Trip Planner

Search our weather history database for the weather conditions in past years. The results will help you decide how hot, cold, wet, or windy it might be!

Date:

Astronomy

Mar. 15, 2013 Rise Set
Actual Time 7:10 AM PDT 7:08 PM PDT
Civil Twilight 6:45 AM PDT 7:33 PM PDT
Nautical Twilight 6:14 AM PDT 8:04 PM PDT
Astronomical Twilight 5:44 AM PDT 8:34 PM PDT
Moon 9:10 AM PDT (3/15) 11:19 PM PDT (3/15)
Length of Visible Light 12h 48m
Length of Day
11h 57m
Waxing Crescent, 16% of the Moon is Illuminated
Mar 15
Waxing Crescent
Mar 19
First Quarter
Mar 27
Full
Apr 2
Last Quarter
Apr 10
New

Hourly Weather History & Observations

Time (PDT) Temp. Dew Point Humidity Pressure Visibility Wind Dir Wind Speed Gust Speed Precip Events Conditions
12:53 AM 55.9 °F 48.9 °F 77% 30.08 in 10.0 mi NW 5.8 mph - N/A   Clear
1:53 AM 54.0 °F 48.9 °F 83% 30.07 in 10.0 mi WNW 3.5 mph - N/A   Clear
2:53 AM 54.0 °F 48.9 °F 83% 30.06 in 10.0 mi WNW 4.6 mph - N/A   Clear
3:53 AM 53.1 °F 46.9 °F 80% 30.05 in 10.0 mi NNW 5.8 mph - N/A   Clear
4:53 AM 52.0 °F 46.9 °F 83% 30.06 in 10.0 mi NNW 5.8 mph - N/A   Clear
5:53 AM 50.0 °F 46.0 °F 86% 30.07 in 10.0 mi WNW 4.6 mph - N/A   Clear
6:53 AM 46.9 °F 45.0 °F 93% 30.07 in 10.0 mi West 5.8 mph - N/A   Clear
7:53 AM 51.1 °F 46.9 °F 86% 30.07 in 10.0 mi West 4.6 mph - N/A   Clear
8:53 AM 55.9 °F 46.9 °F 72% 30.08 in 10.0 mi WNW 4.6 mph - N/A   Clear
9:53 AM 61.0 °F 46.9 °F 60% 30.08 in 10.0 mi NW 6.9 mph - N/A   Clear
10:53 AM 64.9 °F 48.0 °F 54% 30.09 in 10.0 mi NW 8.1 mph - N/A   Clear
11:53 AM 70.0 °F 50.0 °F 49% 30.08 in 10.0 mi NW 6.9 mph - N/A   Clear
12:53 PM 73.0 °F 48.9 °F 42% 30.05 in 10.0 mi Variable 4.6 mph - N/A   Clear
1:53 PM 75.0 °F 50.0 °F 41% 30.03 in 10.0 mi Variable 5.8 mph - N/A   Clear
2:53 PM 75.0 °F 52.0 °F 44% 30.01 in 10.0 mi WNW 11.5 mph - N/A   Clear
3:53 PM 75.0 °F 51.1 °F 43% 30.01 in 10.0 mi NW 15.0 mph 18.4 mph N/A   Clear
4:53 PM 73.0 °F 51.1 °F 46% 30.01 in 10.0 mi NNW 12.7 mph - N/A   Clear
5:53 PM 71.1 °F 52.0 °F 51% 30.01 in 10.0 mi North - - N/A   Clear
6:53 PM 66.9 °F 53.1 °F 61% 30.01 in 10.0 mi WNW 4.6 mph - N/A   Clear
7:53 PM 64.9 °F 52.0 °F 63% 30.01 in 10.0 mi NNW 3.5 mph - N/A   Clear
8:53 PM 60.1 °F 53.1 °F 78% 30.01 in 10.0 mi West 4.6 mph - N/A   Clear
9:53 PM 60.1 °F 53.1 °F 78% 30.02 in 10.0 mi Calm Calm - N/A   Clear
10:53 PM 55.9 °F 52.0 °F 87% 30.02 in 8.0 mi Calm Calm - N/A   Clear
11:53 PM 51.1 °F 50.0 °F 96% 30.02 in 5.0 mi WNW 6.9 mph - N/A   Clear